Tracking 17142 objects as of 28-May-2015
HD Live streaming from Space Station

BREEZE-M DEB

Track BREEZE-M DEB now!
10-day predictions
BREEZE-M DEB is classified as:


NORAD ID: 36958
Int'l Code: 2006-006CQ
Perigee: 398.5 km
Apogee: 13,438.4 km
Inclination: 51.7 °
Period: 254.1 minutes
Semi major axis: 13289 km
RCS: 0.0224 m2 (small)
Launch date: February 28, 2006
Source: Commonwealth of Independent States (former USSR) (CIS)

Note: This is SATELLITE DEBRIS
Your satellite tracking list
Your tracking list is empty





NASA's NSSDC Master Catalog

Two Line Element Set (TLE):
1 36958U 06006CQ  15148.06889074  .00013045  00000-0  66994-2 0  9993
2 36958 051.7468 108.0650 4906089 069.7434 002.1662 05.66683601136685

Source of the keplerian elements: AFSPC

N2YO: 326